#timestamp,LO_Frequency,Hit,StdDev 
1701817215.4,286046999.5,N
1701817235.2,286047000.7,N
1701817255.0,286047000.9,N
1701817255.9,286047000.9,N
1701817275.8,286046998.7,N
1701817295.6,286047000.5,N
1701817315.4,286046998.6,N
1701817335.3,286047000.6,N
1701817355.1,286046998.3,N
1701817356.0,286046998.3,N
1701817375.8,286047001.2,N
1701817395.7,286047000.2,N
1701817415.5,286047000.3,N
1701817435.3,286047000.9,N
1701817455.2,286047000.4,N
1701817475.9,286047002.7,N
1701817495.7,286047002.2,N
1701817515.6,286047001.1,N
1701817535.4,286047000.6,N
1701817555.2,286047001.9,N
1701817575.1,286047000.6,N
1701817576.0,286047000.6,N
1701817595.8,286047000.1,N
1701817615.6,286047001.2,N
1701817635.5,286046998.4,N
1701817655.3,286046998.6,N
1701817675.1,286046998.1,N
1701817695.9,286047000.9,N
1701817715.7,286046998.1,N
1701817735.5,286046998.5,N
1701817755.4,286046999.8,N
1701817775.2,286047002.1,N
1701817795.0,286047001.7,N
1701817795.9,286047001.7,N
1701817815.8,286047004.0,N
1701817835.6,286047001.5,N
1701817855.4,286047001.3,N
1701817875.3,286047003.2,N
1701817895.1,286047006.0,Y
1701817915.8,286047002.9,P
1701817935.7,286047006.0,P
1701817955.5,286047003.3,N
1701817975.3,286047004.1,N
1701817995.2,286047003.3,N
1701818015.9,286047003.0,N
1701818035.7,286047003.2,N
1701818055.6,286047005.8,Y
1701818075.4,286047000.6,P
1701818095.2,286047000.0,N
1701818115.1,286046998.1,N
1701818116.0,286046998.1,N
1701818135.8,286046998.3,N
1701818155.6,286046996.8,N
1701818175.5,286046997.0,N
1701818195.3,286046995.3,N
1701818215.1,286046996.5,N
1701818235.9,286046998.3,N
1701818255.7,286046999.6,N
1701818275.5,286046994.9,N
1701818295.4,286046997.4,N
1701818315.2,286046995.3,N
1701818335.0,286046997.9,N
1701818335.9,286046997.9,N
1701818355.8,286046996.7,N
1701818375.6,286046997.1,N
1701818395.4,286046999.6,N
1701818415.3,286046999.4,N
1701818435.1,286046996.7,N
1701818436.0,286046996.7,N
1701818455.8,286046999.6,N
1701818475.7,286046998.8,N
1701818495.5,286046999.3,N
1701818515.3,286046998.8,N
1701818535.2,286046998.9,N
1701818555.9,286046999.9,N
1701818575.7,286047002.2,N
1701818595.6,286047004.4,N
1701818615.4,286047003.3,N
1701818635.2,286047005.1,N
1701818655.1,286047005.9,N
1701818656.0,286047005.9,N
1701818675.8,286047005.7,N
1701818695.6,286047003.6,N
1701818715.5,286047003.6,N
1701818735.3,286047002.2,N
1701818755.1,286047002.4,N
1701818775.9,286047002.3,N
1701818795.7,286047004.4,N
1701818815.5,286047002.6,N
1701818835.4,286046999.7,N
1701818855.2,286047000.9,N
1701818875.0,286047000.4,N
1701818875.9,286047000.4,N
1701818895.8,286046998.2,N
1701818915.6,286046998.1,N
1701818935.4,286046998.7,N
1701818955.3,286046999.0,N
1701818975.1,286046999.0,N
1701818976.0,286046999.0,N
1701818995.8,286046999.2,N
1701819015.7,286046998.5,N
1701819035.5,286047001.7,N
1701819055.3,286047005.3,N
1701819075.2,286047010.3,Y
1701819095.9,286047008.4,P
1701819115.7,286047010.5,P
1701819135.6,286047010.9,N
1701819155.4,286047013.1,Y
1701819175.2,286047003.4,P
1701819195.1,286047003.9,N
1701819196.0,286047003.9,N
1701819215.8,286047002.7,N
1701819235.6,286047004.4,N
1701819255.5,286047003.3,N
1701819275.3,286047003.2,N
1701819295.1,286047008.8,Y
1701819315.9,286047004.6,P
1701819335.7,286047008.5,P
1701819355.5,286047010.8,P
1701819375.4,286047007.9,N
1701819395.2,286047010.2,Y
1701819415.0,286047005.4,P
1701819415.9,286047005.4,P
1701819435.8,286047003.2,P
1701819455.6,286047007.2,Y
1701819475.4,286047000.8,P
1701819495.3,286046999.9,N
1701819515.1,286047004.2,N
1701819535.8,286047000.9,N
1701819555.7,286046998.2,N
1701819575.5,286046998.7,N
1701819595.3,286046997.0,N
1701819615.2,286046998.1,N
1701819635.0,286047001.1,N
1701819635.9,286047001.1,N
1701819655.7,286046997.7,N
1701819675.6,286046996.5,N
1701819695.4,286046997.6,N
1701819715.2,286046995.9,N
1701819735.1,286046998.0,N
1701819736.0,286046998.0,N
1701819755.8,286046995.9,N
1701819775.6,286046997.4,N
1701819795.5,286046996.5,N
1701819815.3,286046995.5,N
1701819835.1,286046994.9,N
1701819855.9,286046996.5,N
1701819875.7,286046996.8,N
1701819895.5,286046999.3,N
1701819915.4,286046998.8,N
1701819935.2,286047000.1,N
1701819955.0,286047004.4,N
1701819955.9,286047004.4,N
1701819975.8,286047003.9,N
1701819995.6,286047001.6,N
1701820015.4,286047007.2,N
1701820035.3,286047007.5,N
1701820055.1,286047006.2,N
1701820075.8,286047008.4,N
1701820095.7,286047006.6,N
1701820115.5,286047007.2,N
1701820135.3,286047005.2,N
1701820155.2,286047004.8,N
1701820175.0,286047005.3,N
1701820175.9,286047005.3,N
1701820195.7,286047003.9,N
1701820215.6,286046999.7,N
1701820235.4,286046999.9,N
1701820255.2,286046997.0,N
1701820275.1,286046997.9,N
1701820276.0,286046997.9,N
1701820295.8,286046995.4,N
1701820315.6,286046990.2,N
1701820335.5,286046987.2,N
1701820355.3,286046986.3,N
1701820375.1,286046982.3,Y
1701820395.9,286046983.6,P
1701820415.7,286046980.8,N
1701820435.5,286046981.3,N
1701820455.4,286046979.4,N
1701820475.2,286046979.1,N
1701820495.0,286046978.7,N
1701820495.9,286046978.7,N
1701820515.8,286046976.5,Y
1701820535.6,286046991.9,P
1701820555.4,286046992.7,N
1701820575.3,286046990.3,N
1701820595.1,286046990.9,N
1701820615.9,286046989.0,Y
1701820635.7,286047001.2,P
1701820655.5,286046998.7,N
1701820675.3,286046999.3,N
1701820695.2,286046997.1,N
1701820715.0,286046995.5,N
1701820715.9,286046995.5,N
1701820735.7,286046997.8,N
1701820755.6,286046996.5,N
1701820775.4,286046997.2,N
1701820795.2,286046997.0,N
